Location: El Portezuelo
(28.4984°N, 16.3589°W)
Time: 05:25:01
(UTC+00:00)

STARLINK-37 - Pass Details

Date: 20 January 2020
Orbit: 528 x 531 km, 53.0° (Epoch: 26 February)

Event Time Altitude Azimuth Distance (km) Brightness Sun altitude
Exits shadow 06:30:48 31° 341° (NNW) 937 4.5 -19.1°
Drops below altitude 10° 06:33:42 10° 23° (NNE) 1,771 6.3 -18.5°
Sets 06:36:04 0° 32° (NNE) 2,663 7.4 -18.0°
